This demonstration page uses our WeatherBlox Daily Observations layout. Learn more.

Left ArrowRight Arrow

36.17497, -115.13722

Hourly Observations for May 1, 2016

Temp ( °F °C ) Dew Point ( °F °C ) Humidity (%) Winds ( mph kmh ) Pressure ( in mb ) Visibility ( mi km ) Precip ( " mm )
12:53 am 00:53 Partly Cloudy 59 15 44 6.7 58 58 N 10 17 29.85 1011 10 16.0934 0 0
1:53 am 01:53 Mostly Clear 60 15.6 44 6.7 56 56 N 13 20 29.84 1011 10 16.0934 0 0
2:53 am 02:53 Mostly Clear 59 15 45 7.2 60 60 N 9 15 29.84 1011 10 16.0934 0 0
3:53 am 03:53 Mostly Cloudy 60 15.6 42 5.6 52 52 N 12 19 29.85 1011 10 16.0934 0 0
4:53 am 04:53 Cloudy 59 15 42 5.6 54 54 N 6 9 29.86 1011 10 16.0934 0 0
5:53 am 05:53 Mostly Cloudy 57 13.9 43 6.1 60 60 N 6 9 29.88 1012 10 16.0934 0 0
6:53 am 06:53 Mostly Cloudy 60 15.6 42 5.6 52 52 N 10 17 29.9 1013 10 16.0934 0 0
7:53 am 07:53 Sunny 61 16.1 41 5 48 48 N 14 22 29.92 1013 10 16.0934 0 0
8:53 am 08:53 Sunny 65 18.3 40 4.4 40 40 N 16 26 29.92 1013 10 16.0934 0 0
9:53 am 09:53 Sunny 67 19.4 40 4.4 37 37 N 12 19 29.92 1013 10 16.0934 0 0
10:53 am 10:53 Sunny 70 21.1 39 3.9 32 32 N 5 7 29.93 1014 10 16.0934 0 0
11:53 am 11:53 Sunny 70 21.1 40 4.4 34 34 ESE 10 17 29.93 1013 10 16.0934 0 0
12:53 pm 12:53 Sunny 72 22.2 36 2.2 27 27 VRB 5 7 29.91 1013 10 16.0934 0 0
1:53 pm 13:53 Partly Cloudy 71 21.7 35 1.7 27 27 VRB 5 7 29.92 1013 10 16.0934 0 0
2:53 pm 14:53 Sunny 74 23.3 35 1.7 24 24 NNW 10 17 29.91 1013 10 16.0934 0 0
3:53 pm 15:53 Sunny 73 22.8 35 1.7 25 25 Calm 29.91 1013 10 16.0934 0 0
4:53 pm 16:53 Cloudy with Light Rain 57 14 50 10 77 77 SE 9 15 29.74 1007 10 16.0934 0 0
5:53 pm 17:53 Sunny 74 23.3 36 2.2 25 25 NNE 3 6 29.91 1013 10 16.0934 0 0
6:53 pm 18:53 Sunny 72 22.2 36 2.2 27 27 Calm 29.91 1013 10 16.0934 0 0
7:53 pm 19:53 Clear 72 22.2 37 2.8 28 28 Calm 29.93 1014 10 16.0934 0 0
8:53 pm 20:53 Clear 70 21.1 39 3.9 32 32 W 6 9 29.95 1014 10 16.0934 0 0
9:53 pm 21:53 Clear 67 19.4 43 6.1 42 42 N 6 9 29.97 1015 10 16.0934 0 0
10:53 pm 22:53 Clear 64 17.8 45 7.2 50 50 N 5 7 29.98 1015 10 16.0934 0 0
11:53 pm 23:53 Clear 62 16.7 44 6.7 52 52 N 3 6 29.99 1016 10 16.0934 0 0

Powered by AerisWeather